Weather Roundup
Issued by NWS Chicago, IL

Home | Current Version | Previous Version | Text Only | Print | Product List | Glossary Off
Versions: 1 2 3 4 5 6 7 8 9 10 11 12 13 14 15 16 17 18 19 20 21 22 23 24 25 26 27 28 29 30 31 32 33 34 35 36 37 38 39 40 41 42 43 44 45 46 47 48 49 50

000
NZUS59 KLOT 240902
HRRLOT

CHICAGO AREA WEATHER ROUNDUP
NATIONAL WEATHER SERVICE CHICAGO/ROMEOVILLE IL
400 AM CDT FRI MAR 24 2017

NOTE: "FAIR" INDICATES FEW OR NO CLOUDS BELOW 12,000 FEET WITH NO
SIGNIFICANT WEATHER AND/OR OBSTRUCTIONS TO VISIBILITY.

* THESE STATIONS ARE NOT UNDER NWS QUALITY CONTROL. THEY ALSO MAY NOT
  REPORT WEATHER SUCH AS PRECIPITATION OR FOG.

ILZ005-006-012>014-019>023-241000-
NORTHEAST ILLINOIS

CITY           SKY/WX    TMP DP  RH WIND       PRES   REMARKS
OHARE          CLOUDY    47  37  68 S9        29.91F
MIDWAY         CLOUDY    48  38  68 S8        29.94F
AURORA         CLOUDY    45  37  73 S9        29.92F
LANSING*       PTCLDY    42  38  83 S5        29.97S
WAUKEGAN       CLOUDY    48  40  73 SW13      29.89F
DUPAGE AIRPORT CLOUDY    46  40  79 S10       29.91F
WHEELING       CLOUDY    47  40  76 S10       29.93F
MORRIS*        CLOUDY    45  38  78 CALM      29.93F
NORTHERLY ISL    N/A     47  35  63 S5          N/A
$$

WIZ051-052-058>065-066-070>072-241000-
SOUTHEAST WISCONSIN

CITY           SKY/WX    TMP DP  RH WIND       PRES   REMARKS
MILWAUKEE      MOCLDY    48  38  68 SW10      29.86F
KENOSHA*       PTCLDY    47  38  71 S12       29.87F
RACINE*        PTCLDY    48  38  68 SW13      29.88F
WEST BEND      PTCLDY    41  36  81 CALM      29.86F
$$

INZ001>003-010>013-019-020-241000-
NORTHWEST INDIANA

CITY           SKY/WX    TMP DP  RH WIND       PRES   REMARKS
GARY*          CLOUDY    46  34  61 S5        29.97F
MICHIGAN CITY* NOT AVBL
RENSSELAER*    NOT AVBL
VALPARAISO     CLOUDY    48  37  65 SE7       29.98F
$$

LMZ740>746-241000-
SOUTHERN LAKE MICHIGAN

STATION/POSITION TIME  SKY/WX   TEMP WIND        PRES    VSBY
                                AIR  DIR/SP/G
                 (UTC)          (F)  (DEG/KT/KT) (MB)    (MI)
HARRISON CRIB    0840            48  190/ 21/ 21   N/A
BURNHAM HARBOR   0900            44  160/  6/  9   N/A
CALUMET HARBOR   0830            47  160/  5/  6 1014.1F
BURNS HARBOR     0840            49  190/ 10/ 14 1015.2F
MICHIGAN CITY    0840            50  160/  7/ 10   N/A
$$

ABBREVIATIONS USED IN REMARKS
   TC - TEMPERATURE IN CELSIUS
  WCI - WIND CHILL INDEX
   HX - HEAT INDEX
  VSB - VISIBILITY
$$




USA.gov is the U.S. government's official web portal to all federal, state and local government web resources and services.